Regional Weather Roundup
Issued by NWS

Home | Current Version | Previous Version | Graphics & Text | Print | Product List | Glossary On
Versions: 1 2 3 4 5 6 7 8 9 10 11 12 13 14 15 16 17 18 19 20 21 22 23 24 25 26 27 28 29 30 31 32 33 34 35 36 37 38 39 40 41 42 43 44 45 46 47 48 49 50
842
ASUS44 KLIX 210610
RWRLA
LOUISIANA WEATHER ROUNDUP
NATIONAL WEATHER SERVICE NEW ORLEANS LA
1200 AM CST SUN DEC 21 2014

NOTE: "FAIR" INDICATES FEW OR NO CLOUDS BELOW 12,000 FEET WITH NO
      SIGNIFICANT WEATHER AND/OR OBSTRUCTIONS TO VISIBILITY.
      SKY/WX - SKY CONDITION AND SIGNIFICANT WEATHER.
      TMP - AIR TEMPERATURE.    DP   - DEWPOINT TEMPERATURE.
      RH  - RELATIVE HUMIDITY.  PRES - PRESSURE.
      HX  - HEAT INDEX.         WCI  - WIND CHILL INDEX.

*  THESE STATIONS ARE NOT NWS OR FAA STATIONS AND ARE NOT UNDER
   NWS QUALITY CONTROL.

LAZ040-048-061>063-065-066-069-210700-
SOUTHEAST LOUISIANA

CITY           SKY/WX    TMP DP  RH WIND       PRES   REMARKS
N.O. AUDUBON     N/A     52  50  91 MISG        N/A
6HR MIN TEMP:  52; 6HR MAX TEMP:  54;

N.O. INTL ARPT CLOUDY    53  47  79 NE8       30.16S
6HR MIN TEMP:  52; 6HR MAX TEMP:  53;

N.O. LAKEFRONT CLOUDY    55  48  77 NE13      30.17S
6HR MIN TEMP:  54; 6HR MAX TEMP:  55;

N.O. DOWNTOWN* CLOUDY    54  45  71 N5        30.17S
6HR MIN TEMP:  52; 6HR MAX TEMP:  54;

SLIDELL        CLOUDY    52  46  80 VRB6      30.15F
6HR MIN TEMP:  52; 6HR MAX TEMP:  53;

BATON ROUGE    MOCLDY    44  42  93 CALM      30.17S
6HR MIN TEMP:  42; 6HR MAX TEMP:  48;

BOOTHVILLE     CLOUDY    54  53  97 N8        30.13F
6HR MIN TEMP:  54; 6HR MAX TEMP:  55;

BELLE CHASSE   CLOUDY    53  48  83 N6        30.15F
6HR MIN TEMP:  52; 6HR MAX TEMP:  53;

BOGALUSA*        N/A     52  46  79 CALM      30.18S
6HR MIN TEMP:  51; 6HR MAX TEMP:  53;

GALLIANO*      CLOUDY    54  50  86 MISG      30.15S
6HR MIN TEMP:  54; 6HR MAX TEMP:  55;

NEW ROADS*     FAIR      42  42  98 N3        30.18S
6HR MIN TEMP:  42; 6HR MAX TEMP:  49;

GONZALES*      CLOUDY    50  50 100 CALM      30.16F
6HR MIN TEMP:  50; 6HR MAX TEMP:  50;

HAMMOND*       NOT AVBL
HOUMA*         CLOUDY    51  49  92 NE7       30.15F
6HR MIN TEMP:  50; 6HR MAX TEMP:  51;

PORT FOURCHON* CLOUDY    54  50  87 NE14      30.16F

$$

LAZ041-044-053-054-210700-
SOUTHWEST LOUISIANA

CITY           SKY/WX    TMP DP  RH WIND       PRES   REMARKS
LAKE CHARLES   CLEAR     46  43  89 N8        30.17F
6HR MIN TEMP:  46; 6HR MAX TEMP:  52;

LAFAYETTE      PTCLDY    44  42  93 N3        30.17S FOG
6HR MIN TEMP:  43; 6HR MAX TEMP:  50;

PATTERSON      CLOUDY    50  46  87 NE9       30.16F
6HR MIN TEMP:  50; 6HR MAX TEMP:  52;

SALT POINT       N/A     53  49  86 CALM      30.14F
6HR MIN TEMP:  53; 6HR MAX TEMP:  54;

NEW IBERIA     CLOUDY    49  46  90 NE3       30.17S
6HR MIN TEMP:  47; 6HR MAX TEMP:  52;

CHENAULT AIRPK CLEAR     44  43  96 N7        30.18S
6HR MIN TEMP:  44; 6HR MAX TEMP:  53;


$$

LAZ027-028-210700-
CENTRAL LOUISIANA

CITY           SKY/WX    TMP DP  RH WIND       PRES   REMARKS
FORT POLK      NOT AVBL
ALEXANDRIA INT CLEAR     40  40 100 NW3       30.18S FOG
6HR MIN TEMP:  40; 6HR MAX TEMP:  50;

ALEXANDRIA     CLEAR     39  38  96 CALM      30.18F
6HR MIN TEMP:  39; 6HR MAX TEMP:  47;


$$

LAZ001-002-210700-
NORTHWEST LOUISIANA

CITY           SKY/WX    TMP DP  RH WIND       PRES   REMARKS
SHREVEPORT     FOG       39  37  92 N3        30.20F VSB 1/16
6HR MIN TEMP:  37; 6HR MAX TEMP:  45;

BARKSDALE AFB  NOT AVBL
DTN SHREVEPORT FOG       35  34  96 CALM      30.22F VSB 1/4
6HR MIN TEMP:  35; 6HR MAX TEMP:  44;


$$

LAZ014-016-210700-
NORTHEAST LOUISIANA

CITY           SKY/WX    TMP DP  RH WIND       PRES   REMARKS
MONROE         CLEAR     40  38  93 N5        30.23S
6HR MIN TEMP:  38; 6HR MAX TEMP:  47;

TALLULAH       CLEAR     40  36  86 NE5       30.21S
6HR MIN TEMP:  40; 6HR MAX TEMP:  50;


$$




USA.gov is the U.S. government's official web portal to all federal, state and local government web resources and services.